Regional Weather Roundup
Issued by NWS

Home | Current Version | Previous Version | Graphics & Text | Print | Product List | Glossary Off
Versions: 1 2 3 4 5 6 7 8 9 10 11 12 13 14 15 16 17 18 19 20 21 22 23 24 25 26 27 28 29 30 31 32 33 34 35 36 37 38 39 40 41 42 43 44 45 46 47 48 49 50

000
ASUS43 KDMX 271407
RWRIA

WEATHER ROUNDUP FOR IOWA
NATIONAL WEATHER SERVICE DES MOINES IA
800 AM CST SAT DEC 27 2014

NOTE: "FAIR" INDICATES FEW OR NO CLOUDS BELOW 12,000 FEET WITH NO
SIGNIFICANT WEATHER AND/OR OBSTRUCTIONS TO VISIBILITY.

* - THESE STATIONS ARE NOT NWS STATIONS...THUS NOT UNDER NWS
QUALITY CONTROL.  THEY ALSO DO NOT REPORT WEATHER SUCH
AS PRECIPITATION OR FOG.

IAZ001>003-012>014-020>022-031>034-043>046-271500-
   NORTHWEST IOWA

CITY           SKY/WX    TMP DP  RH WIND       PRES   REMARKS
CARROLL *      CLEAR     21  19  93 NW15      30.14R WCI   8
CHEROKEE *     CLEAR     18  16  93 NW8       30.16R WCI   7
DENISON *        N/A     21  19  93 NW10      30.14R WCI  10
LE MARS *      PTCLDY    16  14  93 NW7       30.19R WCI   6
ORANGE CITY *  FLURRIES  18  14  86 NW8       30.14R WCI   7
SHELDON *      CLOUDY    16  14  93 NW12      30.12S WCI   3
SIOUX CITY     CLEAR     16  13  88 NW9       30.20R WCI   4
SPENCER        CLOUDY    19  13  77 NW17G23   30.10S WCI   4
STORM LAKE *   CLOUDY    19  16  86 NW15      30.13R WCI   5
$$

IAZ055>058-069>071-079>083-090>094-271500-
   SOUTHWEST IOWA

CITY           SKY/WX    TMP DP  RH WIND       PRES   REMARKS
ATLANTIC *     CLOUDY    25  21  86 NW14      30.15R WCI  13
AUDUBON *      CLEAR     23  18  80 NW14G21   30.14R WCI  11
CLARINDA *     CLOUDY    27  23  86 NW13      30.21R WCI  16
COUNCIL BLFS * CLOUDY    23  21  93 NW13G21   30.16S WCI  11
CRESTON *      CLOUDY    27  25  93 NW17      30.13F WCI  14
HARLAN  *      CLOUDY    23  23 100 NW16      30.19R WCI  10
LAMONI         CLOUDY    30  26  85 NW17      30.11F WCI  18
RED OAK *      CLOUDY    27  23  86 N12       30.18S WCI  16
SHENANDOAH *   CLOUDY    27  23  86 NW13      30.23R WCI  16
$$

IAZ047>049-059>061-072>074-084-271500-
   CENTRAL IOWA

CITY           SKY/WX    TMP DP  RH WIND       PRES   REMARKS
AMES           CLOUDY    27  22  81 NW17G25   30.12R WCI  14
ANKENY *       CLOUDY    28  25  86 W17       30.12R WCI  16
CHARITON *     CLOUDY    30  28  93 NW14G21   30.08S WCI  20
DES MOINES     CLOUDY    29  24  82 NW16      30.12R WCI  17
GRINNELL*      CLOUDY    30  28  93 W16       30.09R WCI  19
KNOXVILLE *    CLOUDY    30  27  86 NW17      30.08R WCI  18
MARSHALLTOWN   CLOUDY    28  25  88 NW16G26   30.05R WCI  16
PELLA *        CLOUDY    31  29  90 NW16G22   30.11R WCI  20
PERRY *        CLOUDY    27  25  93 NW14      30.13R WCI  15
$$

IAZ004>006-015-016-023>025-035-036-271500-
   NORTH CENTRAL IOWA

CITY           SKY/WX    TMP DP  RH WIND       PRES   REMARKS
ALGONA *       CLOUDY    19  18  93 NW18      30.07S WCI   4
CLARION *      MOCLDY    23  23 100 NW22      30.06R WCI   8
ESTHERVILLE    FLURRIES  17  14  88 NW20      30.08S WCI   1
FORT DODGE *   MOCLDY    21  16  79 NW7       30.09R WCI  13
MASON CITY     CLOUDY    23  20  88 NW23      30.03R WCI   7
FOREST CITY *  CLOUDY    25  21  86 NW16G24   30.03R WCI  12
IOWA FALLS *   CLOUDY    27  23  86 NW20G25   30.05R WCI  13
$$

IAZ007>011-017>019-026>030-037>042-050>054-066-271500-
   NORTHEAST IOWA

CITY           SKY/WX    TMP DP  RH WIND       PRES   REMARKS
CEDAR RAPIDS   CLOUDY    32  30  92 W18       29.99S WCI  20
CHARLES CITY * CLOUDY    27  27 100 NW22      29.98R WCI  12
CLINTON *      CLOUDY    37  34  87 W21G28    29.99R WCI  27
DECORAH *      CLOUDY    30  30 100 NW10G23   29.91R WCI  21
DUBUQUE        CLOUDY    34  33  96 W20G33    29.93R WCI  23
MONTICELLO *   CLOUDY    34  34 100 W16       29.95S WCI  23
OELWEIN *      CLOUDY    30  30 100 NW16G26   29.95R WCI  19
WATERLOO       CLOUDY    30  27  88 NW14G21   29.98F WCI  19
$$

IAZ064-065-067-068-078-271500-
   EAST CENTRAL IOWA

CITY           SKY/WX    TMP DP  RH WIND       PRES   REMARKS
DAVENPORT      CLOUDY    36  31  82 W24G33    30.00R WCI  24
IOWA CITY      MOCLDY    34  31  88 W21       30.01F WCI  22
MT. PLEASANT * CLOUDY    36  32  87 W12G17    30.10R WCI  27
MUSCATINE *    CLOUDY    37  32  81 W12G21    30.03R WCI  30
QUAD CITIES    MOCLDY    37  33  85 W22G30    30.01R WCI  26
$$

IAZ062-063-075>077-085>089-095>099-271500-
   SOUTHEAST IOWA

CITY           SKY/WX    TMP DP  RH WIND       PRES   REMARKS
BURLINGTON     CLOUDY    37  33  85 W17G24    30.06R WCI  27
FAIRFIELD *    CLOUDY    36  30  80 W17       30.11R WCI  25
FORT MADISON * CLOUDY    37  34  87 W17G23    30.08R WCI  28
KEOKUK *       CLOUDY    37  32  81 W13       30.09R WCI  29
OSKALOOSA *    CLOUDY    32  30  93 W15G25    30.09R WCI  22
CENTERVILLE *  CLOUDY    32  32 100 W20G25    30.10R WCI  20
OTTUMWA        MOCLDY    33  29  85 W17G23    30.09R WCI  22
WASHINGTON *   MOCLDY    36  34  93 W18G26    30.08R WCI  25
$$

ABBREVIATIONS USED IN REMARKS
   TC - TEMPERATURES IN CELSIUS
  WCI - WIND CHILL INDEX
   HX - HEAT INDEX
  VSB - VISIBILITY
$$




USA.gov is the U.S. government's official web portal to all federal, state and local government web resources and services.